OSCAR 7 1 07530U 74089B 24289.95585792 -.00000014 00000-0 20267-3 0 9994 2 07530 101.9884 285.7737 0011954 212.9568 174.6064 12.53680997284170 OSCAR 11 (UoSAT 2) 1 14781U 84021B 24289.79907876 .00004561 00000-0 50608-3 0 9992 2 14781 97.7210 255.6126 0009436 47.9881 312.2137 14.87691185166412 OSCAR 19 (LUSAT) 1 20442U 90005G 24289.96597720 .00000596 00000-0 23146-3 0 9995 2 20442 98.8931 283.4809 0011396 186.2789 173.8254 14.33709298815085 EYESAT A 1 22825U 93061C 24289.90919046 .00000448 00000-0 18886-3 0 9991 2 22825 98.7742 343.8659 0009515 86.9211 273.3060 14.30618333619877 ITAMSAT 1 22826U 93061D 24289.57542711 .00000506 00000-0 20929-3 0 9992 2 22826 98.7689 343.3970 0009986 74.2081 286.0202 14.31012397620113 RADIO ROSTO 1 23439U 94085A 24289.82055857 -.00000039 00000-0 82884-4 0 9999 2 23439 64.8166 208.6815 0147058 120.7618 240.7879 11.27579166227197 JAS 2 1 24278U 96046B 24289.71188037 .00000031 00000-0 69659-4 0 9991 2 24278 98.5819 208.5711 0349056 235.9990 120.7535 13.53217109390730 TECHSAT 1B 1 25397U 98043D 24289.87273973 .00000377 00000-0 18375-3 0 9995 2 25397 98.9392 258.4932 0001792 131.9954 228.1377 14.24155803364592 ISS (ZARYA) 1 25544U 98067A 24289.85235117 .00024221 00000-0 43198-3 0 9996 2 25544 51.6376 77.7306 0009120 72.7234 287.4752 15.49902575477265 PCSAT 1 26931U 01043C 24289.74288014 .00000766 00000-0 31935-3 0 9991 2 26931 67.0531 20.0619 0007594 264.8605 95.1630 14.31438349203200 SAUDISAT 1C 1 27607U 02058C 24289.79508674 .00004261 00000-0 57613-3 0 9996 2 27607 64.5551 210.5893 0028733 47.7770 312.5766 14.79987603174166 CUTE-1 1 27844U 03031E 24289.78620216 .00001089 00000-0 49727-3 0 9999 2 27844 98.6800 295.1712 0010252 148.5999 211.5793 14.23550626104940 CUBESAT XI 4 1 27848U 03031J 24289.76920832 .00000938 00000-0 43604-3 0 9998 2 27848 98.6831 295.3278 0009811 164.4600 195.6882 14.22951126104683 MOZHAYETS 4 1 27939U 03042A 24289.95330181 .00003382 00000-0 56043-3 0 9991 2 27939 98.3051 88.2448 0012370 42.8620 109.2660 14.70889572125897 CUBESAT XI 5 1 28895U 05043F 24289.86609269 .00004722 00000-0 81378-3 0 9990 2 28895 98.2184 66.0720 0014791 339.2822 20.7782 14.68934097 12165 CUTE-1.7+APD II 1 32785U 08021C 24289.86546942 .00012639 00000-0 10351-2 0 9998 2 32785 97.7722 254.4670 0007386 294.6808 65.3646 14.99411115893545 SEEDS 1 32791U 08021J 24289.41709342 .00023061 00000-0 14830-2 0 9998 2 32791 97.7030 260.3298 0001952 254.7699 105.3313 15.08403235894614 YUBELEINY 1 32953U 08025A 24289.87267505 .00000048 00000-0 27500-3 0 9991 2 32953 82.5087 14.4156 0019545 198.6529 161.3836 12.43150613743984 PRISM (HITOMI) 1 33493U 09002B 24289.61250937 .00064909 00000-0 21720-2 0 9993 2 33493 98.1887 348.3868 0010170 189.4251 170.6799 15.30678370857384 KKS-1 (KISEKI) 1 33499U 09002H 24289.89478106 .00004549 00000-0 61060-3 0 9995 2 33499 98.1263 192.8933 0010029 98.7843 261.4504 14.79811221845965 SWISSCUBE 1 35932U 09051B 24289.96689732 .00003371 00000-0 71370-3 0 9997 2 35932 98.4516 175.6357 0006236 315.6702 44.3997 14.59913678800177 BEESAT 1 35933U 09051C 24289.17499135 .00002987 00000-0 63887-3 0 9993 2 35933 98.4447 175.5736 0004998 336.0261 24.0705 14.59529680800124 ITUPSAT 1 1 35935U 09051E 24289.89496737 .00002685 00000-0 58911-3 0 9996 2 35935 98.4544 176.0221 0007313 336.1728 23.9130 14.58428633799854 XIWANG-1 (HOPE-1) 1 36122U 09072B 24289.87704476 -.00000026 00000-0 46538-4 0 9999 2 36122 100.3113 245.0522 0007341 182.2733 177.8348 13.16410514712831 TISAT 1 1 36799U 10035E 24289.94246573 .00020532 00000-0 13811-2 0 9996 2 36799 98.0715 184.8207 0004071 151.9047 208.2400 15.06767458775212 JUGNU 1 37839U 11058B 24289.71932517 .00000925 00000-0 34508-3 0 9994 2 37839 19.9615 50.2166 0018540 186.4473 310.1264 14.13367470672686 SRMSAT 1 37841U 11058D 24289.95407861 .00000739 00000-0 25921-3 0 9994 2 37841 19.9708 146.2850 0011733 342.7653 44.5551 14.11243601671641 HORYU 2 1 38340U 12025D 24289.75263362 .00008477 00000-0 10269-2 0 9993 2 38340 98.1692 32.0831 0009410 13.5166 346.6297 14.83860878658096 STRAND 1 1 39090U 13009E 24289.94259034 .00001129 00000-0 40033-3 0 9991 2 39090 98.3805 114.9384 0007761 249.9385 110.0966 14.36362271609572 CUBEBUG 1 1 39153U 13018D 24289.34987570 .00009463 00000-0 99304-3 0 9992 2 39153 98.0898 57.1947 0013620 1.4963 358.6292 14.89667609620080 ZACUBE 1 39417U 13066B 24289.77274561 .00010621 00000-0 10336-2 0 9999 2 39417 97.7483 243.2981 0050454 119.3500 241.2772 14.91743409589548 TRITON 1 1 39427U 13066M 24289.88178989 .00008605 00000-0 11597-2 0 9998 2 39427 97.8367 204.0657 0101727 53.6643 307.3905 14.75809123584000 GOMX 1 1 39430U 13066Q 24289.89674125 .00005500 00000-0 89374-3 0 9996 2 39430 97.7114 156.9469 0135832 228.3525 130.5986 14.65490614580532 HUMSAT D 1 39433U 13066T 24289.90677732 .00033458 00000-0 17365-2 0 9991 2 39433 97.4969 279.1495 0013683 220.0276 139.9950 15.15969075592993 CUBEBUG 2 1 39440U 13066AA 24289.57703161 .00009355 00000-0 10434-2 0 9997 2 39440 97.8217 230.8539 0064963 239.3055 120.1748 14.85706019586194 FUNCUBE 1 1 39444U 13066AE 24289.60867241 .00014429 00000-0 12812-2 0 9995 2 39444 97.7323 246.6267 0047679 99.1967 261.4652 14.95371859588081 UWE-3 1 39446U 13066AG 24289.76200918 .00008527 00000-0 89594-3 0 9990 2 39446 97.7931 237.1601 0057471 180.3976 179.7205 14.88473979586620 UNISAT 6 1 40012U 14033C 24289.69950687 .00007692 00000-0 96092-3 0 9996 2 40012 97.7160 87.4465 0050126 271.7444 87.8029 14.81726203555672 DUCHIFAT 1 1 40021U 14033M 24289.91722842 .00030889 00000-0 17286-2 0 9992 2 40021 98.0993 280.4865 0014536 59.3547 300.9114 15.13302949562347 QB50P1 1 40025U 14033R 24289.66307263 .00016158 00000-0 11952-2 0 9991 2 40025 98.0554 254.7399 0013548 127.9167 232.3284 15.03195726560955 CHUBUSAT 1 1 40300U 14070C 24289.48201484 .00111604 00000-0 10571-2 0 9994 2 40300 97.0660 329.5003 0005635 327.1294 32.9616 15.66576680553398 KAITUO 1A 1 40904U 15049F 24289.94172049 .00304078 00000-0 18488-2 0 9990 2 40904 97.4697 312.6746 0003982 190.0406 170.0780 15.76620532503246 OBJECT G 1 40905U 15049G 24289.86857401 .00021847 00000-0 67809-3 0 9996 2 40905 97.5206 300.5876 0008171 276.4996 83.5315 15.33370578502170 XW-2C 1 40906U 15049H 24289.92249346 .00085735 00000-0 11942-2 0 9999 2 40906 97.4677 310.8555 0005304 194.7738 165.3363 15.56634261503159 XW-2D 1 40907U 15049J 24289.85519631 .00274603 00000-0 15400-2 0 9996 2 40907 97.4548 315.4103 0005141 170.1046 190.0323 15.78524421503517 LILACSAT 2 1 40908U 15049K 24289.88321292 .00017609 00000-0 60181-3 0 9992 2 40908 97.5232 299.7664 0009103 288.7545 71.2707 15.30309915501923 XW-2B 1 40911U 15049N 24289.85504409 .00234796 00000-0 15004-2 0 9997 2 40911 97.4535 315.2186 0004825 172.8663 187.2672 15.75663402503367 LAPAN A2 1 40931U 15052B 24270.29994034 .00002074 00000-0 19195-3 0 9996 2 40931 5.9998 350.0993 0012711 76.7416 283.4129 14.78150863486449 LQSAT 1 40958U 15057A 24289.88707712 .00001713 00000-0 25943-3 0 9997 2 40958 97.6645 303.7022 0019110 89.6473 270.6927 14.75259715485423 CHUBUSAT 2 1 41338U 16012B 24289.83753186 .00011360 00000-0 66003-3 0 9994 2 41338 31.0017 333.0082 0009747 9.4877 350.5945 15.10828527475842 CHUBUSAT 3 1 41339U 16012C 24289.83627854 .00009956 00000-0 59180-3 0 9993 2 41339 31.0082 332.3858 0009960 12.7721 347.3168 15.09970402475726 PRATHAM 1 41783U 16059A 24289.46531831 .00002260 00000-0 42281-3 0 9990 2 41783 97.8335 303.1776 0032245 1.8188 358.3128 14.65460141430154 ALSAT 1N 1 41789U 16059G 24289.88222325 .00002601 00000-0 46766-3 0 9998 2 41789 97.8222 309.8187 0026223 337.2091 22.7948 14.67229837430588